国际通讯卫星 15 星 (INTELSAT 15 (IS-15))

导读 | 星芒AI

INTELSAT 15(IS-15)是由波音公司制造的通信卫星,于2005年发射,由国际通信卫星组织(Intelsat)运营。该卫星位于东经68.5度轨道位置,主要为亚洲、澳大利亚及太平洋地区提供C波段和Ku波段的广播和通信服务。IS-15具备高功率和多波束能力,支持电视广播、企业通信和互联网接入,是区域通信网络的重要组成部分。

基本信息
目录编号:
36106
目录名称:
INTELSAT 15
国际标识:
2009-067A
轨道中心:
EARTH
卫星名称:
国际通讯卫星 15 星
卫星全名:
国际通讯卫星 15 星 (INTELSAT 15 (IS-15))
卫星状态:
在轨 (已飞行5812 天)
发射日期:
2009-11-30 UTC
国别 :
(ITSO)
星等 :
--
轨道信息
数据来源 国际轨道数据 AOE轨道数据
星历时间 2025-10-28T21:26:56+0800
17小时前
查看轨道信息
2025-10-29T02:00:00+0800
12小时前
查看轨道信息
半长轴 42165.065km 42164.728km
偏心率 0.0002196 0.0002421
轨道倾角 0.021° 0.014°
近地点辐角 295.626° 28.296°
升交点赤经 272.455° 180.641°
平近点角 115.987° 183.585°
近地点 35777.67km 35776.384km
远地点 35796.19km 35796.802km
周期 1436.114分钟 1436.097分钟
每日圈数 1.002706 1.002718
详细信息
卫星平台:
STAR-2
平衡模式:
三轴稳定
覆盖范围:
全球
运营商:
国际卫星通信公司
运营商所在国:
美国
制造商(研发单位):
轨道ATK公司
制造商所在国:
美国
使用方式:
暂无
卫星简介
从1965年4月至1984年3月,国际通信卫星组织发射了5代、6种不同性能的卫星共计35颗,除6颗卫星因运载火箭和远地点发动机故障而发射失败外,其余29颗卫星均被送到了预定的静止轨道位置。1984年8月前后,国际通信卫星组织利用部署在大西洋、太平洋、印度洋上空的15颗国际通信卫星,为遍布世界各地170多个国家或地区提供电话、电传、电报、电视和数据传输等电信业务;该卫星仍在工作。
2D轨道图
3D轨道图
轨道高度分析图
轨道倾角分析图
轨道综合分析图
查看轨道综合分析图